EW3232 Weather Reports


Display with metric or nautical units.
time (UTC)temp
F
wind
direction
speed
MPH
gust
MPH
rain 1hr
in
rain 24hr
in
rain mn
in
humidity
%
barometer
mb
20260902201614 74 252 0.0 2.0 0.00 0.00 0.00 82 1022.1
20260902200048 75 260 0.0 2.0 0.00 0.00 0.00 81 1021.8
20260902194559 74 260 1.0 2.0 0.00 0.00 0.00 81 1021.8
20260902193127 75 280 0.0 3.0 0.00 0.00 0.00 80 1021.7
20260902191639 75 271 0.0 3.0 0.00 0.00 0.00 80 1021.5
20260902190128 76 4 1.0 3.0 0.00 0.00 0.00 79 1021.5
20260902184643 77 31 0.0 2.0 0.00 0.00 0.00 78 1021.4
20260902181552 78 88 0.0 8.0 0.00 0.00 0.00 77 1021.1
20260902180028 79 108 4.0 9.0 0.00 0.00 0.00 75 1021.0
20260902174532 80 140 1.0 4.0 0.00 0.00 0.00 74 1021.1
20260902173047 80 120 2.0 7.0 0.00 0.00 0.00 74 1021.0
20260902171605 80 108 4.0 6.0 0.00 0.00 0.00 73 1021.0
20260902170057 81 95 2.0 7.0 0.00 0.00 0.00 73 1020.7
20260902164615 81 127 2.0 8.0 0.00 0.00 0.00 72 1021.1
20260902163128 81 48 5.0 10.0 0.00 0.00 0.00 70 1021.3
20260902161648 82 63 3.0 10.0 0.00 0.00 0.00 70 1020.9
20260902160009 83 73 5.0 10.0 0.00 0.00 0.00 69 1021.0
20260902154537 82 161 4.0 12.0 0.00 0.00 0.00 71 1021.0
20260902153103 83 84 3.0 12.0 0.00 0.00 0.00 71 1021.0
20260902151614 83 105 8.0 12.0 0.00 0.00 0.00 71 1020.9
20260902150106 83 83 5.0 12.0 0.00 0.00 0.00 70 1021.0
20260902144615 83 65 8.0 13.0 0.00 0.00 0.00 69 1021.0
20260902143010 84 63 7.0 12.0 0.00 0.00 0.00 68 1021.1
20260902141535 84 102 9.0 15.0 0.00 0.00 0.00 66 1021.2
20260902140015 84 61 5.0 14.0 0.00 0.00 0.00 66 1021.2
20260902134539 85 104 6.0 14.0 0.00 0.00 0.00 64 1021.5
20260902133049 85 158 6.0 12.0 0.00 0.00 0.00 64 1021.4
20260902131606 85 11 5.0 12.0 0.00 0.00 0.00 64 1021.4
20260902130049 84 101 1.0 9.0 0.00 0.00 0.00 65 1021.4
20260902123016 83 170 5.0 11.0 0.00 0.00 0.00 67 1021.7
20260902121523 82 140 2.0 12.0 0.00 0.00 0.00 68 1021.9
20260902120014 83 153 8.0 11.0 0.00 0.00 0.00 66 1022.0
20260902114537 82 124 8.0 18.0 0.00 0.00 0.00 67 1022.0
20260902113029 82 23 6.0 13.0 0.00 0.00 0.00 68 1022.1
20260902111556 83 83 5.0 12.0 0.00 0.00 0.00 65 1022.3
20260902110104 82 10 6.0 12.0 0.00 0.00 0.00 64 1022.3
20260902104624 81 132 5.0 12.0 0.00 0.00 0.00 66 1022.4
20260902103131 81 37 4.0 11.0 0.00 0.00 0.00 65 1022.6
20260902101647 81 88 4.0 11.0 0.00 0.00 0.00 65 1022.5
20260902100005 80 83 6.0 11.0 0.00 0.00 0.00 67 1022.4
20260902094627 80 58 7.0 10.0 0.00 0.00 0.00 68 1022.4
20260902093135 79 64 4.0 10.0 0.00 0.00 0.00 68 1022.1
20260902091643 78 42 2.0 7.0 0.00 0.00 0.00 70 1022.0
20260902090136 77 56 5.0 9.0 0.00 0.00 0.00 71 1022.0
20260902084611 77 69 4.0 10.0 0.00 0.00 0.00 72 1021.8
20260902083132 76 71 6.0 7.0 0.00 0.00 0.00 73 1021.5
20260902081651 75 65 3.0 8.0 0.00 0.00 0.00 74 1021.6
20260902080123 74 77 3.0 8.0 0.00 0.00 0.00 74 1021.4
20260902074527 74 71 2.0 5.0 0.00 0.00 0.00 75 1021.2
20260902073034 73 63 1.0 3.0 0.00 0.00 0.00 77 1021.0
20260902071559 72 75 0.0 2.0 0.00 0.00 0.00 80 1021.0
20260902070039 70 360 0.0 2.0 0.00 0.00 0.00 86 1021.0
20260902064612 68 24 0.0 2.0 0.00 0.00 0.00 89 1020.9
20260902063035 66 264 0.0 2.0 0.00 0.00 0.00 92 1020.7
20260902061557 65 264 1.0 2.0 0.00 0.00 0.00 92 1020.6
20260902060128 65 264 0.0 2.0 0.00 0.00 0.00 93 1020.6
20260902054622 65 264 0.0 2.0 0.00 0.00 0.00 93 1020.5
20260902051702 64 267 1.0 2.0 0.00 0.00 0.00 92 1020.4
20260902050156 65 267 0.0 0.0 0.00 0.00 0.00 92 1020.3
20260902044532 65 267 0.0 2.0 0.00 0.00 0.00 92 1020.4
20260902043110 65 264 1.0 2.0 0.00 0.00 0.00 92 1020.2
20260902041613 65 281 1.0 2.0 0.00 0.00 0.00 92 1020.1
20260902040118 65 281 0.0 2.0 0.00 0.00 0.00 91 1020.1
20260902034615 65 281 0.0 1.0 0.00 0.00 0.00 91 1020.3
20260902033129 65 264 2.0 4.0 0.00 0.00 0.00 91 1020.1
20260902031645 66 273 0.0 3.0 0.00 0.00 0.00 91 1020.1
20260902024510 66 279 0.0 2.0 0.00 0.00 0.00 90 1020.1
20260902023010 67 279 0.0 2.0 0.00 0.00 0.00 89 1020.1
20260902021543 67 250 1.0 3.0 0.00 0.00 0.00 90 1020.0
20260902020145 67 201 0.0 2.0 0.00 0.00 0.00 88 1020.2
20260902014531 68 201 0.0 3.0 0.00 0.00 0.00 88 1020.3
20260902013019 68 246 0.0 2.0 0.00 0.00 0.00 87 1020.2
20260902011530 68 261 1.0 3.0 0.00 0.00 0.00 88 1020.3
20260902010035 69 266 2.0 4.0 0.00 0.00 0.00 87 1020.4
20260902004502 70 265 0.0 4.0 0.00 0.00 0.00 85 1020.4
20260902003027 70 250 2.0 5.0 0.00 0.00 0.00 86 1020.5
20260902001601 70 243 2.0 4.0 0.00 0.00 0.00 86 1020.6
20260902000107 70 268 3.0 6.0 0.00 0.00 0.00 87 1020.6
20260901234535 68 260 4.0 6.0 0.00 0.00 0.00 88 1020.7
20260901233028 68 255 3.0 4.0 0.00 0.00 0.00 89 1020.6
20260901231556 68 281 2.0 6.0 0.00 0.00 0.00 89 1020.7
20260901230107 68 264 3.0 4.0 0.00 0.00 0.00 88 1020.7
20260901224516 68 246 2.0 4.0 0.00 0.00 0.00 89 1020.7
20260901223044 67 263 4.0 6.0 0.00 0.00 0.00 89 1020.6
20260901221632 68 274 3.0 4.0 0.00 0.00 0.00 88 1020.7
20260901220012 68 287 0.0 3.0 0.00 0.00 0.00 88 1020.7
20260901214625 68 266 1.0 3.0 0.00 0.00 0.00 86 1020.5
20260901213120 69 347 1.0 3.0 0.00 0.00 0.00 86 1020.5
20260901211641 69 312 0.0 3.0 0.00 0.00 0.00 86 1020.4
20260901210135 70 262 1.0 3.0 0.00 0.00 0.00 85 1020.3
20260901204642 70 318 1.0 4.0 0.00 0.00 0.00 84 1020.1
20260901203156 70 331 1.0 3.0 0.00 0.00 0.00 84 1020.0